Airfield :
LOGIN :

Register | Disclaimer

   EN    FR    IT 

 










Legend :    VFR   Marginal VFR   IFR   Intensive IFR   Very Intensive IFR
Visi :
Ceiling :
>= 8 km
>= 3000ft
5 to 8 km
1000 to 3000 ft
1500m to 5 km
500 to 1000 ft
800 to 1500m
200 to 500 ft
< 800m
< 200 ft
Symbols :   Thunderstorms  Fog  Heavy snow  Heavy precipitations  Wind > 20 kt
SIGMETs :     Misc.  Thunderstorms  Icing  Turbulence  Mountain Waves  Volcanic Ashes







- Airport Elevation : 1959 ft
- IATA code : HOQ


EDQM - Hof Plauen

CURRENT METAR :
  • 261750Z 02007KT 340V050 CAVOK 19/09 Q1021

EXPIRED METARs :
  • 261720Z 01007KT 320V040 CAVOK 20/09 Q1021
  • 261650Z 01009KT CAVOK 20/09 Q1021
  • 261620Z 36007KT 300V030 CAVOK 21/08 Q1021
  • 261550Z 03009KT CAVOK 21/09 Q1021

TAF TAF EDQM
Valid from the 26 at 18:00 until the 27 at 03:00 UTC


261700Z 2618/2703 02006KT CAVOK
BECMG 2618/2620 VRB03KT
No reported NOTAMs for that airfield.



MET'MAP, your aeronautical weather chart ! - Copyright ORBIFLY December 2007 - Disclaimer

ORBIFLY MET'MAP TEAM :

Programming & Development : Alexandra Zaïnal
Concept & Development : Baudouin d'Aumeries
Co-Development & Prog : Marc-Olivier Méhu
Technical & hardware support : Manuel Goepfert

Contact : metmap@orbifly.com




SOURCES & CREDITS :

   NOAA